Rbgn^[z[y[W
メイン
   新天体発見情報
     Comet P/2022 E1 (Christensen)
投稿するにはまず登録を

フラット表示 前のトピック | 次のトピック
投稿者 スレッド
佐藤裕久
投稿日時: 2022-3-19 15:30
モデレータ
登録日: 2005-6-12
居住地: 日本
投稿: 2663
オンライン
Comet P/2022 E1 (Christensen)

Eric J. Christensen (アリゾナ大学)の通報によると、3月2日、Mt Lemmonの1.5-m 反射
望遠鏡で得た、30-秒のCCD露出から彗星を発見した。
4枚の合成画像では、集光した5"のコマが見え、p.a. 290°に向かって10"の尾があった。
小惑星センターのPCCP webpageに公表後、L. Buzzi (Varese,イタリア,3月7.1日UT, 60-秒
露出90枚のスタック, 0.84-m f/3.5 反射望遠鏡, 観測はA. Alettiと彼: 中程度に集光した
幅6"のコマとp.a. 290°に向かってかすかに伸びている)、佐藤英貴氏(東京都文京区,3月
8.5日, 120-秒露出10枚のスタック,0.43-m f/6.8 アストログラフ, Mayhill近郊, ニュー
メキシコ州,  米国,遠隔操作: 強く集光した6"のぼやけたコマが見えるが尾はない。5".7の
円形範囲で測定した光度は20.5等であった)や池村俊彦氏(愛知県名古屋市, 3月8.7日, 60-秒
露出25枚のスタック, 0.38-m f/4.2 反射望遠鏡, 新城観測所, 測定・報告は佐藤裕久:中程
度に集光した約6"のコマが見えるが、尾はない。全光度は20.2等)らCCD位置観測者によって
彗星状と観測された。

彗星機能の報告は次のとおり、

OC   Date        Reporter           Coma    Tail    PA          Exposures
I52  2022-03-02  D. C. Fuls         6        8"     280
204  2022-03-07  A. Aletti          6"                          90x60s
H06  2022-03-08  H. Sato            6"                          10x120s
Q11  2022-03-08  H. Sato            6"                          25x60s
F52  2022-03-10  R. Weryk           0".1     8"     280         4x45s

発見位置は次のとおり、

     2022 UT             R.A. (2000) Decl.       Mag.   Observer
     Mar.  2.44874   15 19 22.63   + 6 20 57.0   20.6   Christensen
           2.45386   15 19 22.78   + 6 20 58.2   20.5     "
           2.45898   15 19 22.88   + 6 20 59.5   20.7     "
           2.46411   15 19 22.98   + 6 21 00.8   20.3     "
           2.51180   15 19 24.01   + 6 21 14.2   20.8     "
           2.51880   15 19 24.14   + 6 21 16.5   20.4     "

MPCの楕円軌道要素、位置推算表は次のとおり、

Orbital elements:
    P/2022 E1 (Christensen)                                                     
Epoch 2022 Oct. 28.0 TT = JDT 2459880.5                                         
T 2022 Oct. 8.45475 TT                                  Rudenko                 
q   2.9645581            (2000.0)            P               Q                  
n   0.11645112     Peri.  144.48614     -0.24930361     +0.91353784             
a   4.1531115      Node   109.13209     -0.94842424     -0.16321532             
e   0.2861838      Incl.   19.88830     -0.19580392     -0.37257129             
P   8.46                                                                        
From 45 observations 2022 Mar. 2-10, mean residual 0".3.                        
                                                                                
    P/2022 E1 (Christensen)                                                     
Epoch 2031 Apr. 4.0 TT = JDT 2462960.5                                          
T 2031 Mar. 16.29369 TT                                 Rudenko                 
q   2.9641028            (2000.0)            P               Q                  
n   0.11624797     Peri.  143.97173     -0.25862921     +0.91083124             
a   4.1579488      Node   109.06110     -0.94665875     -0.17271613             
e   0.2871238      Incl.   19.89957     -0.19221899     -0.37490744             
P   8.48                                                                        
From 45 observations 2022 Mar. 2-10, mean residual 0".3.                        
                                                                                
    P/2022 E1 (Christensen)                                                     
Epoch 2022 Jan. 21.0 TT = JDT 2459600.5                                         
T 2022 Oct. 8.32663 TT                                  Rudenko                 
q   2.9646362            (2000.0)            P               Q                  
n   0.11635837     Peri.  144.45470     -0.24969041     +0.91344492             
a   4.1553182      Node   109.13929     -0.94835938     -0.16363592             
e   0.2865441      Incl.   19.88687     -0.19562511     -0.37261463             
P   8.47                                                                        
From 45 observations 2022 Mar. 2-10, mean residual 0".3.                        
                                                                                
Ephemeris:
Date    TT    R. A. (2000) Decl.     Delta      r    Elong.  Phase   m1
2022 02 08    15 06 29.5 +05 00 31   2.9690  3.2221    95.8    17.7  20.9
...
2022 02 23    15 16 03.7 +05 48 59   2.7520  3.1937   107.6    17.2  20.7
...
2022 03 03    15 19 34.8 +06 23 31   2.6430  3.1790   114.1    16.5  20.6
...
2022 03 09    15 21 24.2 +06 52 38   2.5656  3.1683   119.0    15.9  20.6
2022 03 10    15 21 38.2 +06 57 43   2.5531  3.1665   119.8    15.8  20.5
2022 03 11    15 21 51.0 +07 02 50   2.5408  3.1647   120.7    15.7  20.5
...
2022 03 17    15 22 41.4 +07 34 32   2.4697  3.1543   125.6    14.9  20.5
...
2022 03 25    15 22 37.5 +08 18 17   2.3834  3.1407   132.1    13.6  20.4
...
2022 04 09    15 18 53.1 +09 37 14   2.2534  3.1163   143.6    11.0  20.2

(MPEC 2022-E167、CBET 5107)

フラット表示 前のトピック | 次のトピック

題名 投稿者 日時
 » Comet P/2022 E1 (Christensen) 佐藤裕久 2022-3-19 15:30
     Comet P/2022 E1 = 2005 N11 = 2015 PO210 (PANSTARRS-Christensen) 佐藤裕久 2022-4-27 8:06

投稿するにはまず登録を
 
© 1999 Tsutomu Seki.